| time (UTC) | temp F | wind direction | speed knots | gust knots | rain 1hr in | rain 24hr in | rain mn in | humidity % | barometer mb |
| 20260507191225 | 60 | 0 | 6.1 | 15.6 | 0.00 | 0.00 | 0.00 | 72 | 998.1 |
| 20260507190219 | 60 | 270 | 12.2 | 20.0 | 0.00 | 0.00 | 0.00 | 72 | 998.6 |
| 20260507185212 | 60 | 270 | 7.0 | 13.9 | 0.00 | 0.00 | 0.00 | 73 | 998.7 |
| 20260507184206 | 60 | 270 | 9.6 | 17.4 | 0.00 | 0.00 | 0.00 | 72 | 998.8 |
| 20260507183200 | 60 | 270 | 7.8 | 13.9 | 0.00 | 0.00 | 0.00 | 73 | 999.4 |
| 20260507182154 | 60 | 270 | 5.2 | 18.2 | 0.00 | 0.00 | 0.00 | 73 | 1000.4 |
| 20260507181148 | 60 | 315 | 5.2 | 11.3 | 0.00 | 0.00 | 0.00 | 76 | 999.8 |
| 20260507180142 | 59 | 315 | 6.1 | 11.3 | 0.00 | 0.00 | 0.00 | 76 | 999.6 |
| 20260507175137 | 59 | 270 | 7.0 | 14.8 | 0.00 | 0.00 | 0.00 | 75 | 999.2 |
| 20260507174129 | 59 | 315 | 6.1 | 9.6 | 0.00 | 0.00 | 0.00 | 77 | 998.4 |
| 20260507173123 | 58 | 270 | 6.1 | 12.2 | 0.00 | 0.00 | 0.00 | 77 | 998.0 |
| 20260507172119 | 58 | 270 | 6.1 | 10.4 | 0.00 | 0.00 | 0.00 | 77 | 998.8 |
| 20260507171121 | 59 | 270 | 6.1 | 13.9 | 0.00 | 0.00 | 0.00 | 77 | 999.0 |
| 20260507170115 | 59 | 270 | 7.0 | 14.8 | 0.00 | 0.00 | 0.00 | 76 | 999.6 |
| 20260507165057 | 59 | 293 | 6.1 | 18.2 | 0.00 | 0.00 | 0.00 | 76 | 1000.2 |
| 20260507164053 | 60 | 270 | 13.0 | 18.2 | 0.00 | 0.00 | 0.00 | 76 | 1000.3 |
| 20260507163046 | 60 | 270 | 6.1 | 13.9 | 0.00 | 0.00 | 0.00 | 80 | 999.6 |
| 20260507162040 | 60 | 315 | 4.3 | 9.6 | 0.00 | 0.00 | 0.00 | 81 | 998.9 |
| 20260507161034 | 60 | 0 | 6.1 | 12.2 | 0.00 | 0.00 | 0.00 | 82 | 998.8 |
| 20260507160036 | 60 | 270 | 7.0 | 13.0 | 0.00 | 0.00 | 0.00 | 82 | 998.9 |
| 20260507155029 | 60 | 315 | 9.6 | 13.0 | 0.00 | 0.00 | 0.00 | 82 | 999.1 |
| 20260507154023 | 61 | 0 | 9.6 | 13.0 | 0.00 | 0.00 | 0.00 | 82 | 998.9 |
| 20260507153009 | 61 | 0 | 5.2 | 13.0 | 0.00 | 0.00 | 0.00 | 84 | 998.5 |
| 20260507152002 | 61 | 0 | 9.6 | 13.0 | 0.00 | 0.00 | 0.00 | 85 | 998.8 |
| 20260507150958 | 61 | 0 | 8.7 | 13.0 | 0.00 | 0.00 | 0.00 | 87 | 999.5 |
| 20260507145950 | 61 | 270 | 7.0 | 13.9 | 0.00 | 0.00 | 0.00 | 88 | 1000.0 |
| 20260507144944 | 62 | 0 | 5.2 | 9.6 | 0.00 | 0.00 | 0.00 | 88 | 999.8 |
| 20260507143938 | 62 | 270 | 3.5 | 7.8 | 0.00 | 0.00 | 0.00 | 88 | 999.3 |
| 20260507142931 | 62 | 315 | 3.5 | 9.6 | 0.00 | 0.00 | 0.00 | 89 | 999.1 |
| 20260507141925 | 61 | 0 | 3.5 | 9.6 | 0.00 | 0.00 | 0.00 | 89 | 998.4 |
| 20260507140919 | 62 | 0 | 8.7 | 12.2 | 0.00 | 0.00 | 0.00 | 89 | 998.9 |
| 20260507135913 | 62 | 0 | 7.0 | 12.2 | 0.00 | 0.00 | 0.00 | 89 | 999.3 |
| 20260507134906 | 62 | 270 | 3.5 | 9.6 | 0.00 | 0.00 | 0.00 | 89 | 999.1 |
| 20260507133901 | 62 | 0 | 3.5 | 7.8 | 0.00 | 0.00 | 0.00 | 88 | 999.3 |
| 20260507132906 | 62 | 23 | 2.6 | 5.2 | 0.00 | 0.00 | 0.00 | 89 | 1000.2 |
| 20260507131847 | 62 | 225 | 4.3 | 7.0 | 0.00 | 0.00 | 0.00 | 89 | 1001.2 |
| 20260507130843 | 61 | 270 | 1.7 | 3.5 | 0.00 | 0.00 | 0.00 | 89 | 1001.1 |
| 20260507125838 | 61 | 270 | 1.7 | 5.2 | 0.00 | 0.00 | 0.00 | 89 | 999.8 |
| 20260507124830 | 61 | 0 | 4.3 | 10.4 | 0.00 | 0.00 | 0.00 | 90 | 999.2 |
| 20260507123826 | 61 | 23 | 4.3 | 10.4 | 0.00 | 0.00 | 0.00 | 90 | 999.0 |
| 20260507122824 | 61 | 293 | 5.2 | 11.3 | 0.00 | 0.00 | 0.00 | 90 | 999.3 |
| 20260507121811 | 60 | 23 | 9.6 | 15.6 | 0.00 | 0.00 | 0.00 | 91 | 999.1 |
| 20260507120805 | 60 | 293 | 7.8 | 13.0 | 0.00 | 0.00 | 0.00 | 91 | 998.4 |
| 20260507115759 | 60 | 0 | 11.3 | 14.8 | 0.00 | 0.00 | 0.00 | 91 | 997.3 |
| 20260507114752 | 61 | 270 | 4.3 | 13.0 | 0.00 | 0.00 | 0.00 | 90 | 998.7 |
| 20260507113746 | 61 | 0 | 5.2 | 13.0 | 0.00 | 0.00 | 0.00 | 90 | 998.9 |
| 20260507112740 | 61 | 270 | 3.5 | 13.0 | 0.00 | 0.00 | 0.00 | 92 | 998.8 |
| 20260507111735 | 61 | 0 | 9.6 | 13.0 | 0.00 | 0.00 | 0.00 | 94 | 998.0 |
| 20260507110729 | 61 | 270 | 7.0 | 10.4 | 0.00 | 0.00 | 0.00 | 96 | 997.4 |
| 20260507105722 | 61 | 0 | 5.2 | 16.5 | 0.00 | 0.00 | 0.00 | 97 | 997.7 |
| 20260507104719 | 62 | 0 | 10.4 | 15.6 | 0.00 | 0.00 | 0.00 | 98 | 997.0 |
| 20260507103710 | 62 | 315 | 5.2 | 8.7 | 0.00 | 0.00 | 0.00 | 98 | 997.9 |
| 20260507102704 | 62 | 270 | 2.6 | 7.0 | 0.00 | 0.00 | 0.00 | 98 | 998.4 |
| 20260507101657 | 62 | 315 | 1.7 | 4.3 | 0.00 | 0.00 | 0.00 | 98 | 998.3 |
| 20260507100650 | 62 | 0 | 2.6 | 7.0 | 0.00 | 0.00 | 0.00 | 98 | 996.7 |
| 20260507095644 | 63 | 0 | 3.5 | 7.8 | 0.00 | 0.00 | 0.00 | 97 | 997.8 |
| 20260507094649 | 63 | 270 | 3.5 | 9.6 | 0.00 | 0.00 | 0.00 | 97 | 998.1 |
| 20260507093632 | 63 | 315 | 6.1 | 9.6 | 0.00 | 0.00 | 0.00 | 97 | 997.2 |
| 20260507092625 | 63 | 23 | 5.2 | 7.0 | 0.00 | 0.00 | 0.00 | 97 | 997.0 |
| 20260507091620 | 63 | 315 | 1.7 | 7.0 | 0.00 | 0.00 | 0.00 | 97 | 997.8 |
| 20260507090625 | 63 | 270 | 5.2 | 7.8 | 0.00 | 0.00 | 0.00 | 97 | 997.0 |
| 20260507085608 | 63 | 270 | 3.5 | 10.4 | 0.00 | 0.00 | 0.00 | 97 | 997.3 |
| 20260507084601 | 63 | 0 | 7.0 | 11.3 | 0.00 | 0.00 | 0.00 | 97 | 997.6 |
| 20260507083554 | 63 | 0 | 7.0 | 11.3 | 0.00 | 0.00 | 0.00 | 97 | 998.0 |
| 20260507082549 | 63 | 270 | 2.6 | 4.3 | 0.00 | 0.00 | 0.00 | 97 | 997.2 |
| 20260507081542 | 63 | 23 | 1.7 | 3.5 | 0.00 | 0.00 | 0.00 | 97 | 996.8 |
| 20260507080536 | 63 | 23 | 1.7 | 2.6 | 0.00 | 0.00 | 0.00 | 97 | 997.0 |
| 20260507075531 | 64 | 23 | 1.7 | 3.5 | 0.00 | 0.00 | 0.00 | 97 | 996.7 |
| 20260507074524 | 64 | 23 | 1.7 | 2.6 | 0.00 | 0.00 | 0.00 | 97 | 997.4 |
| 20260507073518 | 64 | 180 | 0.0 | 3.5 | 0.00 | 0.00 | 0.00 | 97 | 997.8 |
| 20260507072512 | 64 | 180 | 0.9 | 4.3 | 0.00 | 0.00 | 0.00 | 97 | 998.1 |
| 20260507071505 | 64 | 0 | 1.7 | 3.5 | 0.00 | 0.00 | 0.00 | 97 | 997.4 |
| 20260507070459 | 64 | 180 | 0.9 | 4.3 | 0.00 | 0.00 | 0.00 | 97 | 998.3 |
| 20260507065452 | 64 | 23 | 1.7 | 5.2 | 0.00 | 0.00 | 0.00 | 97 | 997.7 |
| 20260507064446 | 64 | 23 | 0.9 | 2.6 | 0.00 | 0.00 | 0.00 | 97 | 999.2 |
| 20260507063441 | 64 | 180 | 0.0 | 1.7 | 0.00 | 0.00 | 0.00 | 97 | 1000.1 |
| 20260507062435 | 64 | 23 | 0.0 | 1.7 | 0.00 | 0.00 | 0.00 | 97 | 1000.6 |
| 20260507061430 | 64 | 0 | 0.0 | 4.3 | 0.00 | 0.00 | 0.00 | 97 | 1000.5 |
| 20260507060446 | 64 | 0 | 1.7 | 2.6 | 0.00 | 0.00 | 0.00 | 96 | 1000.9 |
| 20260507060212 | 64 | 0 | 4.3 | 0.0 | 0.00 | 0.00 | 0.00 | 96 | 1000.0 |
| 20260507055419 | 64 | 0 | 4.3 | 7.8 | 0.00 | 0.00 | 0.00 | 96 | 1000.0 |
| 20260507054412 | 64 | 0 | 3.5 | 6.1 | 0.00 | 0.00 | 0.00 | 96 | 1000.3 |
| 20260507053405 | 64 | 0 | 1.7 | 4.3 | 0.00 | 0.00 | 0.00 | 96 | 1000.4 |
| 20260507052359 | 64 | 180 | 0.0 | 7.8 | 0.00 | 0.00 | 0.00 | 96 | 999.2 |
| 20260507051353 | 64 | 0 | 5.2 | 7.0 | 0.00 | 0.00 | 0.00 | 97 | 998.9 |
| 20260507050347 | 64 | 0 | 0.0 | 3.5 | 0.00 | 0.00 | 0.00 | 97 | 999.1 |
| 20260507045341 | 64 | 0 | 0.0 | 3.5 | 0.00 | 0.00 | 0.00 | 95 | 999.2 |
| 20260507044335 | 64 | 0 | 1.7 | 4.3 | 0.00 | 0.00 | 0.00 | 96 | 1000.3 |
| 20260507043328 | 64 | 23 | 0.0 | 6.1 | 0.00 | 0.00 | 0.00 | 95 | 998.8 |
| 20260507042323 | 64 | 23 | 3.5 | 7.0 | 0.00 | 0.00 | 0.00 | 95 | 999.4 |
| 20260507041320 | 64 | 270 | 2.6 | 13.9 | 0.00 | 0.00 | 0.00 | 96 | 998.6 |
| 20260507040310 | 65 | 0 | 9.6 | 20.0 | 0.00 | 0.00 | 0.00 | 95 | 998.9 |
| 20260507035306 | 66 | 0 | 0.9 | 11.3 | 0.00 | 0.00 | 0.00 | 93 | 999.8 |
| 20260507034257 | 67 | 225 | 9.6 | 20.0 | 0.00 | 0.00 | 0.00 | 91 | 998.8 |
| 20260507033251 | 69 | 23 | 9.6 | 15.6 | 0.00 | 0.00 | 0.00 | 88 | 998.7 |
| 20260507032244 | 69 | 0 | 6.1 | 14.8 | 0.00 | 0.00 | 0.00 | 86 | 997.9 |
| 20260507031239 | 71 | 0 | 10.4 | 18.2 | 0.00 | 0.00 | 0.00 | 78 | 998.1 |
| 20260507030232 | 74 | 0 | 11.3 | 26.1 | 0.00 | 0.00 | 0.00 | 72 | 998.9 |
| 20260507025226 | 78 | 270 | 4.3 | 9.6 | 0.00 | 0.00 | 0.01 | 75 | 998.2 |
| 20260507024222 | 78 | 0 | 4.3 | 9.6 | 0.00 | 0.00 | 0.01 | 75 | 997.7 |
| 20260507023214 | 78 | 0 | 4.3 | 9.6 | 0.00 | 0.00 | 0.01 | 75 | 997.8 |
| 20260507022219 | 78 | 315 | 7.8 | 13.9 | 0.00 | 0.00 | 0.01 | 75 | 997.7 |
| 20260507021202 | 78 | 0 | 7.0 | 12.2 | 0.00 | 0.00 | 0.01 | 75 | 997.4 |
| 20260507020155 | 78 | 0 | 4.3 | 13.0 | 0.00 | 0.00 | 0.01 | 75 | 998.3 |
| 20260507015148 | 78 | 0 | 3.5 | 13.9 | 0.00 | 0.00 | 0.01 | 75 | 998.3 |
| 20260507014142 | 78 | 0 | 6.1 | 13.9 | 0.00 | 0.00 | 0.01 | 76 | 998.6 |
| 20260507013136 | 78 | 0 | 7.0 | 14.8 | 0.00 | 0.00 | 0.01 | 76 | 998.3 |
| 20260507012131 | 78 | 0 | 5.2 | 13.9 | 0.00 | 0.00 | 0.01 | 77 | 998.5 |
| 20260507011126 | 78 | 0 | 5.2 | 16.5 | 0.00 | 0.00 | 0.01 | 77 | 998.3 |
| 20260507010121 | 78 | 0 | 5.2 | 23.5 | 0.00 | 0.00 | 0.01 | 77 | 997.9 |
| 20260507005112 | 78 | 0 | 7.8 | 14.8 | 0.00 | 0.00 | 0.01 | 78 | 998.1 |
| 20260507004106 | 78 | 315 | 3.5 | 13.0 | 0.00 | 0.00 | 0.01 | 78 | 998.6 |
| 20260507003100 | 78 | 0 | 6.1 | 12.2 | 0.00 | 0.00 | 0.01 | 79 | 998.7 |
| 20260507002054 | 77 | 0 | 7.8 | 14.8 | 0.00 | 0.00 | 0.01 | 80 | 998.5 |
| 20260507001047 | 76 | 315 | 6.1 | 13.0 | 0.00 | 0.00 | 0.01 | 82 | 998.3 |
| 20260507000041 | 75 | 0 | 3.5 | 9.6 | 0.00 | 0.00 | 0.01 | 83 | 998.3 |
| 20260506235035 | 75 | 0 | 3.5 | 9.6 | 0.00 | 0.00 | 0.01 | 83 | 998.5 |
| 20260506234035 | 74 | 0 | 4.3 | 8.7 | 0.00 | 0.00 | 0.01 | 84 | 999.1 |
| 20260506233028 | 73 | 0 | 2.6 | 9.6 | 0.00 | 0.00 | 0.01 | 83 | 998.3 |
| 20260506232022 | 73 | 0 | 3.5 | 7.8 | 0.00 | 0.00 | 0.01 | 85 | 997.9 |
| 20260506231011 | 72 | 180 | 0.0 | 0.9 | 0.00 | 0.00 | 0.01 | 85 | 998.2 |
| 20260506230006 | 72 | 180 | 0.0 | 1.7 | 0.00 | 0.00 | 0.01 | 85 | 998.6 |
| 20260506224958 | 72 | 23 | 0.0 | 0.0 | 0.00 | 0.00 | 0.01 | 86 | 999.2 |
| 20260506224003 | 71 | 0 | 0.0 | 0.0 | 0.00 | 0.00 | 0.01 | 86 | 999.6 |
| 20260506222947 | 71 | 315 | 0.0 | 0.9 | 0.00 | 0.00 | 0.01 | 86 | 999.5 |
| 20260506221939 | 71 | 180 | 0.0 | 0.9 | 0.00 | 0.00 | 0.01 | 86 | 999.7 |
| 20260506220934 | 72 | 23 | 0.0 | 0.0 | 0.00 | 0.00 | 0.01 | 85 | 999.8 |
| 20260506215927 | 72 | 0 | 0.0 | 0.0 | 0.00 | 0.00 | 0.01 | 84 | 1000.1 |
| 20260506214921 | 72 | 23 | 0.0 | 0.9 | 0.00 | 0.00 | 0.01 | 84 | 1000.5 |
| 20260506213914 | 72 | 180 | 0.0 | 0.0 | 0.00 | 0.00 | 0.01 | 84 | 1000.8 |
| 20260506212908 | 73 | 23 | 0.0 | 0.0 | 0.00 | 0.00 | 0.01 | 83 | 1001.1 |
| 20260506211902 | 73 | 23 | 0.0 | 0.0 | 0.00 | 0.00 | 0.01 | 82 | 1001.2 |
| 20260506210856 | 73 | 0 | 0.0 | 0.0 | 0.00 | 0.00 | 0.01 | 82 | 1001.2 |
| 20260506205849 | 73 | 23 | 0.0 | 0.0 | 0.00 | 0.00 | 0.01 | 82 | 1001.2 |
| 20260506204843 | 73 | 23 | 0.0 | 0.0 | 0.00 | 0.00 | 0.01 | 81 | 1001.3 |
| 20260506203837 | 73 | 180 | 0.0 | 0.0 | 0.00 | 0.00 | 0.01 | 80 | 1001.3 |
| 20260506202831 | 74 | 23 | 0.0 | 0.9 | 0.00 | 0.00 | 0.01 | 79 | 1001.5 |
| 20260506201825 | 75 | 23 | 0.0 | 0.0 | 0.00 | 0.00 | 0.01 | 77 | 1001.4 |
| 20260506200822 | 77 | 23 | 0.0 | 3.5 | 0.00 | 0.00 | 0.01 | 75 | 1001.6 |
| 20260506195814 | 77 | 0 | 0.0 | 2.6 | 0.00 | 0.00 | 0.01 | 73 | 1001.7 |
| 20260506194806 | 80 | 23 | 1.7 | 2.6 | 0.00 | 0.00 | 0.01 | 73 | 1002.0 |
| 20260506193800 | 77 | 0 | 0.9 | 3.5 | 0.00 | 0.00 | 0.01 | 74 | 1001.7 |
| 20260506192754 | 78 | 23 | 1.7 | 3.5 | 0.00 | 0.00 | 0.01 | 72 | 1002.1 |